STARLINK-36734, 67988

Orbit data source: Space-Track

STARLINK-36734, 67988 is a payload satellite owned by SpaceX/Seattle (US) in LEO that was launched on Fri, 27 Feb 2026 UTC via an FALCON 9 launch vehicle from the Air Force Eastern Test Range (AFETR). Payload-class satellites include a variety of spacecraft equipped with specific instruments for various scientific and technological missions. These include communications satellites like Starlink; space stations such as the ISS; scientific satellites like the Hubble; Earth observation satellites from companies like Planet Labs, Umbra, and HawkEye 360; GPS; miniature CubeSats for education and research; and military/defense satellites.

Loading next visibility...
Identifier
67988, 2026-039C
Orbit
LEO
Country
Flag of USUS
Related business
Manufacturer
SpaceX/Seattle
Mission
Operational Commercial Communications
Bus & Motor
STARLINK V2MO, Unknown motor
Mass
575 kg wet, ~530 kg dry
Launch date (UTC)
2026-02-27 (2 months ago)
Launch vehicle
FALCON 9
Launch site
Air Force Eastern Test Range (AFETR)
Object type
Payload
Rocket body
Debris
Shape & HBR
Box + 2 Pan, 17.7 m
Radar Cross Section
36.964 m²

Expand to show TLE details & history
Last TLE update: 13 hours ago

TLE from 13 hours ago
0 STARLINK-36734
1 67988U 26039C   26119.06174780  .00017825  00000-0  63893-3 0  9995
2 67988  42.9953 124.7872 0000572 267.3405  92.7381 15.28431150  9407
Epoch: 2026-04-29T01:28Z
TLE epoch observation values (Epoch: 2026-04-29T01:28:55.009Z)
Latitude
-0.00007°
Longitude
-114.47018°
Altitude
480.295 km
Speed
7.627 km/s
True Right ascension
08h 19m 08s
True Declination
0° 00' 00"
Sunlit
Object was in daylight at epoch
Visualization orbit readout
Latitude
Unknown
Longitude
Unknown
Altitude
Unknown
Speed
Unknown
Apparent Right ascension
Unknown
Apparent Declination
Unknown
Sunlit
N/A
Visualization observer readout
Local Sidereal Time
21:53:03
Azimuth
Unknown
Elevation
Unknown
Doppler factor
Unknown
Orbital elements
Apogee altitude
482.841 km
Perigee altitude
482.056 km
Semi-major axis
6,860.585 km
Eccentricity
0.00006
Inclination
42.9953°
RAAN
124.7872°
Arg. of periapsis
267.3405°
True anomaly
92.74465°
Mean anomaly
92.7381°
Eccentric anomaly
92.74137°
Mean motion
3.81946 °/min
Orbital period
94.25 mins
BSTAR
0.00063893
Loading maneuver chart data...
Computing Atmospheric mass density...
Loading historical data...
Loading historical data...
Loading historical data...
Loading historical data...
Loading historical data...
Loading historical data...
Loading historical data...

Documentation

Showing up to 5 results
|